Location: Hungerford
(51.4167°N, 1.5167°W)
Time: 12:50:19
(UTC+00:00)

NOSS 3-1 (C) - Pass Details

Date: 18 September 2020
Orbit: 743 x 1466 km, 63.4° (Epoch: 09 October)

Event Time Altitude Azimuth Distance (km) Brightness Sun altitude
Rises 23:19:03 0° 311° (NW) 3,759 7.2 -36.5°
Reaches altitude 10° 23:21:34 10° 316° (NW) 2,905 6.5 -36.6°
Maximum altitude 23:28:26 54° 33° (NNE) 1,452 4.4 -36.8°
Enters shadow 23:28:49 53° 44° (NE) 1,467 4.4 -36.8°
